Back to catalog

STARLINK-34438

AliveCommunicationsVLEO
NORAD 65876·PAYLOAD·🇺🇸 United States

Launched Oct 3, 2025 from Vandenberg Space Force Base

Loading…

Next Passes (next 24 hours)

TLE

FreshSource: CelesTrak SupGP

Epoch: Sep 14, 2026, 21:24 UTC

1 65876C 25223Y   26257.89215278 -.00010015  00000+0 -29610-3 0  2576
2 65876  53.1563 132.2652 0001090  85.8084  30.5591 15.34375122    18

Track STARLINK-34438 in real time with AllMySat

Download on the App Store